This demonstration page uses our WeatherBlox Daily Observations layout. Learn more.

Hourly Observations for December 7, 2017

Temp ( °F °C ) Dew Point ( °F °C ) Humidity (%) Winds ( mph kmh ) Pressure ( in mb ) Visibility ( mi km ) Precip ( " mm )
12:53 am 00:53 Partly Cloudy 28 -2.2 24 -4.4 85 85 Calm 30.13 1020 10 16.0934 0 0
1:53 am 01:53 Partly Cloudy 29 -1.7 25 -3.9 85 85 Calm 30.12 1020 10 16.0934 0 0
2:53 am 02:53 Mostly Cloudy 28 -2.2 25 -3.9 88 88 Calm 30.12 1020 10 16.0934 0 0
3:53 am 03:53 Clear 26 -3.3 23 -5 88 88 Calm 30.11 1020 10 16.0934 0 0
4:53 am 04:53 Clear 29 -1.7 24 -4.4 82 82 WSW 6 9 30.11 1020 10 16.0934 0 0
5:53 am 05:53 Clear 28 -2.2 25 -3.9 88 88 W 3 6 30.11 1020 10 16.0934 0 0
6:53 am 06:53 Cloudy 29 -1.7 26 -3.3 89 89 WSW 5 7 30.13 1020 10 16.0934 0 0
7:53 am 07:53 Cloudy 32 0 28 -2.2 85 85 WSW 6 9 30.15 1021 10 16.0934 0 0
8:11 am 08:11 Cloudy 32 0 28 -2.2 85 85 W 3 6 30.18 1022 10 16.0934 0 0
8:53 am 08:53 Cloudy 32 0 25 -3.9 75 75 W 9 15 30.16 1021 10 16.0934 0 0
9:53 am 09:53 Mostly Cloudy 31 -0.6 20 -6.7 64 64 W 14 22 30.17 1022 10 16.0934 0 0
10:53 am 10:53 Mostly Cloudy 32 0 22 -5.6 66 66 WNW 16 26 30.19 1023 10 16.0934 0 0
11:34 am 11:34 Mostly Cloudy 31 -0.6 20 -6.7 64 64 W 15 24 30.21 1023 10 16.0934 0 0
11:53 am 11:53 Partly Cloudy 30 -1.1 18 -7.8 61 61 W 13 20 30.2 1023 10 16.0934 0 0
12:18 pm 12:18 Mostly Cloudy 32 0 19 -7.2 59 59 WNW 13 20 30.21 1023 10 16.0934 0 0
12:53 pm 12:53 Cloudy 32 0 19 -7.2 59 59 W 16 26 30.18 1022 10 16.0934 0 0
1:53 pm 13:53 Cloudy 29 -1.7 19 -7.2 66 66 W 13 20 30.19 1022 10 16.0934 0 0
2:53 pm 14:53 Cloudy 29 -1.7 19 -7.2 66 66 WNW 13 20 30.19 1023 10 16.0934 0 0
3:53 pm 15:53 Cloudy 28 -2.2 19 -7.2 69 69 NW 15 24 30.2 1023 10 16.0934 0 0
4:53 pm 16:53 Cloudy 27 -2.8 16 -8.9 63 63 WNW 10 17 30.22 1024 10 16.0934 0 0
5:09 pm 17:09 Cloudy 27 -2.8 16 -8.9 63 63 W 10 17 30.24 1024 10 16.0934 0 0
5:53 pm 17:53 Cloudy 27 -2.8 15 -9.4 61 61 W 5 7 30.24 1024 10 16.0934 0 0
6:53 pm 18:53 Cloudy 27 -2.8 16 -8.9 63 63 W 7 11 30.25 1024 10 16.0934 0 0
7:53 pm 19:53 Partly Cloudy 25 -3.9 16 -8.9 69 69 W 6 9 30.25 1024 10 16.0934 0 0
8:53 pm 20:53 Clear 23 -5 15 -9.4 72 72 Calm 30.23 1024 10 16.0934 0 0
9:53 pm 21:53 Clear 19 -7.2 16 -8.9 88 88 Calm 30.22 1024 10 16.0934 0 0
10:53 pm 22:53 Clear 18 -7.8 15 -9.4 88 88 Calm 30.24 1024 10 16.0934 0 0
11:53 pm 23:53 Clear 18 -7.8 14 -10 84 84 Calm 30.23 1024 10 16.0934 0 0

Powered by AerisWeather